Regional Weather Roundup
Issued by NWS Jackson, KY

Home | Current Version | Previous Version | Graphics & Text | Print | Product List | Glossary On
Versions: 1 2 3 4 5 6 7 8 9 10 11 12 13 14 15 16 17 18 19 20 21 22 23 24 25 26 27 28 29 30 31 32 33 34 35 36 37 38 39 40 41 42 43 44 45 46 47 48 49 50
000
ASUS43 KJKL 271310
RWRJKL

EAST KENTUCKY HOURLY WEATHER ROUNDUP
NATIONAL WEATHER SERVICE JACKSON KY
900 AM EDT SAT MAY 27 2017

NOTE: "FAIR" INDICATES FEW OR NO CLOUDS BELOW 12,000 FEET WITH
NO SIGNIFICANT WEATHER AND/OR OBSTRUCTIONS TO VISIBILITY.

* THESE REPORTS ARE NOT UNDER NWS QUALITY CONTROL AND MAY NOT
  REPORT WEATHER SUCH AS PRECIPITATION AND FOG.

KYZ079-080-083-085-087-088-110-112-115-119-120-271400
...EASTERN KENTUCKY...

CITY           SKY/WX    TMP DP  RH WIND       PRES   REMARKS
JACKSON        CLOUDY    71  62  73 CALM      29.95R
LONDON         CLOUDY    72  60  66 SW8       29.97R
SOMERSET*      CLOUDY    68  61  77 CALM      29.97R
MONTICELLO*    CLOUDY    72  64  76 NW8       29.98R
WILLIAMSBURG*  CLOUDY    72  64  78 SW3       29.98R
MIDDLESBORO*   CLOUDY    71  64  78 CALM      29.99R
HARLAN APT*    CLOUDY    64  61  88 CALM      30.00R
PIKE CO APT*   CLOUDY    71  62  72 SW3       29.95R
BIG SANDY APT* CLOUDY    72  63  73 SW3       29.94R
MOREHEAD APT*  CLOUDY    72  63  73 SW9       29.93R
ASHLAND*       CLOUDY    68  64  88 CALM      29.87R
$$

KYZ035-036-041-042-044-050-067-078-099-271400
...CENTRAL KENTUCKY...

CITY           SKY/WX    TMP DP  RH WIND       PRES   REMARKS
MT STERLING*   CLOUDY    70  63  78 W6        29.95R
FLEMING/MASON* CLOUDY    71  66  84 W9        29.92R
DANVILLE*      CLOUDY    70  63  78 W6        29.95R
LEXINGTON      CLOUDY    72  62  71 SW8       29.93R
FRANKFORT      CLOUDY    72  64  76 SW6       29.91R
LOUISVILLE     CLOUDY    75  69  81 W5        29.89R
LEBANON*       PTSUNNY   72  64  78 S5        29.94R
GLASGOW*       CLOUDY    72  64  76 SW3       29.94R
BOWLING GREEN  CLOUDY    74  66  76 SW9       29.94R
$$

KYZ091>093-OHZ055-061-077-WVZ005-015-034-035-042-271400
...SOUTHERN OHIO/WEST VIRGINIA...

CITY           SKY/WX    TMP DP  RH WIND       PRES   REMARKS
COVINGTON      PTSUNNY   72  67  84 W7        29.88R
COLUMBUS       PTSUNNY   67  64  90 E3        29.86S
DAYTON         CLOUDY    68  66  93 W8        29.88R FOG
WILMINGTON     PTSUNNY   71  67  87 W9        29.87S
HUNTINGTON     CLOUDY    70  62  76 SW6       29.89R
CHARLESTON     CLOUDY    69  61  75 SW7       29.90R
PINEVILLE*     CLOUDY    65  62  89 MISG      30.01S
BECKLEY        CLOUDY    67  58  72 SW7       29.99R
BLUEFIELD      SUNNY     67  58  72 W12       30.02R
LOGAN CO APT*  CLOUDY    68  61  77 CALM      29.95R
$$

VAZ002-007-008-TNZ017-027-036-066-071-271400
...SOUTHWEST VIRGINIA/EAST TENNESSEE...

CITY           SKY/WX    TMP DP  RH WIND       PRES   REMARKS
WISE*          CLOUDY    68  59  73 CALM      30.04R
JONESVILLE*    CLOUDY    64  61  88 CALM      30.02R
ABINGDON*      PTSUNNY   68  61  79 W3        30.02S
BRISTOL        PTSUNNY   66  60  81 CALM      30.00S
MORRISTOWN*    CLOUDY    72  63  73 VRB5      29.99R
SEVIERVILLE*   CLOUDY    73  64  73 CALM      29.99R
KNOXVILLE      CLOUDY    71  62  73 W9        30.00R
LAFOLLETTE*    PTSUNNY   68  64  88 CALM      30.02R
OAK RIDGE      CLOUDY    71  62  73 CALM      30.01R
CROSSVILLE     CLOUDY    68  61  78 S3        30.03R
NASHVILLE      CLOUDY    73  63  70 SW6       29.97R
$$

...KEY TO REMARKS...
VSB - VISIBILITY IN MILES
WCI - WIND CHILL INDEX
HX  - HEAT INDEX

$$



USA.gov is the U.S. government's official web portal to all federal, state and local government web resources and services.